• In Romania
  • List of Countries
  • For 7 days
  • Water Temperature
  • Satellite Maps
  • Weather Map
  • Weather Widgets
  • user-avatar
    Login

    Hourly Weather Salta

    Today, 26 September, Tuesday

    Time Temperature Precipitation Wind Pressure Humidity
    00:00 +21°C° 0 mm 1 mps 653 mmHg 63%
    01:00 +21°C° 0 mm 1 mps 653 mmHg 64%
    02:00 +20°C° 0 mm 1 mps 652 mmHg 65%
    03:00 +20°C° 0 mm 1 mps 652 mmHg 66%
    04:00 +19°C° 0 mm 1 mps 652 mmHg 67%
    05:00 +19°C° 0 mm 1 mps 651 mmHg 68%
    06:00 +20°C° 0 mm 1 mps 652 mmHg 63%
    07:00 +22°C° 0 mm 1 mps 652 mmHg 58%
    08:00 +23°C° 0 mm 1 mps 653 mmHg 53%
    09:00 +25°C° 0 mm 2 mps 653 mmHg 48%
    10:00 +27°C° 0 mm 2 mps 653 mmHg 43%
    11:00 +28°C° 0 mm 3 mps 653 mmHg 38%
    12:00 +29°C° 0.7 mm 3 mps 653 mmHg 37%
    13:00 +29°C° 0.7 mm 3 mps 652 mmHg 36%
    14:00 +30°C° 0.7 mm 3 mps 651 mmHg 35%
    15:00 +29°C° 0.2 mm 3 mps 651 mmHg 38%
    16:00 +29°C° 0.2 mm 3 mps 650 mmHg 40%
    17:00 +28°C° 0.2 mm 3 mps 650 mmHg 43%
    18:00 +27°C° 0.7 mm 3 mps 650 mmHg 49%
    19:00 +25°C° 0.7 mm 2 mps 650 mmHg 55%
    20:00 +23°C° 0.7 mm 1 mps 650 mmHg 61%
    21:00 +23°C° 1 mm 1 mps 650 mmHg 63%
    22:00 +23°C° 1 mm 1 mps 650 mmHg 64%
    23:00 +22°C° 1 mm 1 mps 651 mmHg 65%

    Tomorrow, 27 September, Wednesday

    Time Temperature Precipitation Wind Pressure Humidity
    00:00 +22°C° 0.8 mm 1 mps 651 mmHg 66%
    01:00 +21°C° 0.8 mm 1 mps 650 mmHg 67%
    02:00 +21°C° 0.8 mm 1 mps 650 mmHg 68%
    03:00 +21°C° 0.4 mm 1 mps 650 mmHg 68%
    04:00 +20°C° 0.4 mm 1 mps 650 mmHg 68%
    05:00 +20°C° 0.4 mm 1 mps 650 mmHg 69%
    06:00 +20°C° 0.3 mm 2 mps 651 mmHg 65%
    07:00 +21°C° 0.3 mm 2 mps 652 mmHg 62%
    08:00 +23°C° 0.3 mm 2 mps 653 mmHg 58%
    09:00 +24°C° 0.3 mm 3 mps 653 mmHg 57%
    10:00 +25°C° 0.3 mm 3 mps 653 mmHg 56%
    11:00 +25°C° 0.3 mm 3 mps 653 mmHg 54%
    12:00 +25°C° 0.8 mm 3 mps 653 mmHg 58%
    13:00 +23°C° 0.8 mm 4 mps 652 mmHg 61%
    14:00 +23°C° 0.8 mm 4 mps 651 mmHg 64%
    15:00 +22°C° 1 mm 4 mps 651 mmHg 68%
    16:00 +21°C° 1 mm 3 mps 650 mmHg 72%
    17:00 +20°C° 1 mm 3 mps 650 mmHg 76%
    18:00 +19°C° 0.2 mm 2 mps 650 mmHg 78%
    19:00 +19°C° 0.2 mm 2 mps 651 mmHg 80%
    20:00 +18°C° 0.2 mm 2 mps 651 mmHg 82%
    21:00 +18°C° 0.1 mm 2 mps 651 mmHg 83%
    22:00 +17°C° 0.1 mm 2 mps 652 mmHg 84%
    23:00 +17°C° 0.1 mm 2 mps 652 mmHg 85%

    Day after tomorrow, 28 September, Thursday

    Time Temperature Precipitation Wind Pressure Humidity
    00:00 +17°C° 0 mm 2 mps 652 mmHg 85%
    01:00 +17°C° 0 mm 2 mps 652 mmHg 85%
    02:00 +16°C° 0 mm 1 mps 651 mmHg 85%
    03:00 +16°C° 0 mm 1 mps 651 mmHg 85%
    04:00 +16°C° 0 mm 1 mps 651 mmHg 85%
    05:00 +16°C° 0 mm 1 mps 651 mmHg 85%
    06:00 +18°C° 0 mm 1 mps 652 mmHg 81%
    07:00 +18°C° 0 mm 1 mps 652 mmHg 76%
    08:00 +19°C° 0 mm 1 mps 653 mmHg 72%
    09:00 +19°C° 0 mm 2 mps 653 mmHg 68%
    10:00 +20°C° 0 mm 2 mps 653 mmHg 64%
    11:00 +21°C° 0 mm 2 mps 653 mmHg 60%
    12:00 +21°C° 0.1 mm 2 mps 652 mmHg 61%
    13:00 +21°C° 0.1 mm 2 mps 651 mmHg 61%
    14:00 +21°C° 0.1 mm 2 mps 650 mmHg 61%
    15:00 +21°C° 0.1 mm 2 mps 650 mmHg 64%
    16:00 +20°C° 0.1 mm 2 mps 649 mmHg 67%
    17:00 +20°C° 0.1 mm 2 mps 648 mmHg 70%
    18:00 +19°C° 0.1 mm 2 mps 649 mmHg 73%
    19:00 +19°C° 0.1 mm 2 mps 650 mmHg 76%
    20:00 +18°C° 0.1 mm 2 mps 650 mmHg 79%
    21:00 +19°C° 0.1 mm 1 mps 650 mmHg 80%
    22:00 +18°C° 0.1 mm 1 mps 651 mmHg 80%
    23:00 +18°C° 0.1 mm 1 mps 651 mmHg 81%

    29 September, Friday

    Time Temperature Precipitation Wind Pressure Humidity
    00:00 +18°C° 0 mm 1 mps 650 mmHg 80%
    01:00 +18°C° 0 mm 1 mps 650 mmHg 79%
    02:00 +16°C° 0 mm 1 mps 650 mmHg 77%
    03:00 +16°C° 0 mm 1 mps 650 mmHg 75%
    04:00 +16°C° 0 mm 1 mps 650 mmHg 73%
    05:00 +15°C° 0 mm 1 mps 650 mmHg 71%
    06:00 +18°C° 0 mm 1 mps 651 mmHg 67%
    07:00 +19°C° 0 mm 1 mps 651 mmHg 63%
    08:00 +20°C° 0 mm 1 mps 652 mmHg 58%
    09:00 +20°C° 0 mm 2 mps 652 mmHg 56%
    10:00 +21°C° 0 mm 2 mps 652 mmHg 53%
    11:00 +23°C° 0 mm 2 mps 652 mmHg 51%
    12:00 +24°C° 0 mm 2 mps 652 mmHg 49%
    13:00 +25°C° 0 mm 2 mps 651 mmHg 48%
    14:00 +26°C° 0 mm 3 mps 651 mmHg 47%
    15:00 +25°C° 0.1 mm 3 mps 650 mmHg 47%
    16:00 +25°C° 0.1 mm 3 mps 650 mmHg 48%
    17:00 +25°C° 0.1 mm 3 mps 649 mmHg 48%
    18:00 +23°C° 0 mm 2 mps 649 mmHg 55%
    19:00 +20°C° 0 mm 2 mps 649 mmHg 62%
    20:00 +20°C° 0 mm 1 mps 650 mmHg 69%
    21:00 +19°C° 0 mm 1 mps 650 mmHg 71%
    22:00 +19°C° 0 mm 1 mps 650 mmHg 72%
    23:00 +18°C° 0 mm 1 mps 650 mmHg 74%

    30 September, Saturday

    Time Temperature Precipitation Wind Pressure Humidity
    00:00 +18°C° 0 mm 1 mps 650 mmHg 72%
    01:00 +18°C° 0 mm 1 mps 650 mmHg 70%
    02:00 +18°C° 0 mm 1 mps 649 mmHg 68%
    03:00 +18°C° 0 mm 1 mps 649 mmHg 65%
    04:00 +18°C° 0 mm 1 mps 649 mmHg 62%
    05:00 +18°C° 0 mm 1 mps 649 mmHg 59%
    06:00 +18°C° 0 mm 2 mps 650 mmHg 54%
    07:00 +20°C° 0 mm 2 mps 650 mmHg 48%
    08:00 +21°C° 0 mm 2 mps 651 mmHg 43%
    09:00 +25°C° 0 mm 2 mps 651 mmHg 36%
    10:00 +27°C° 0 mm 3 mps 651 mmHg 30%
    11:00 +29°C° 0 mm 3 mps 651 mmHg 23%
    12:00 +31°C° 0 mm 3 mps 650 mmHg 21%
    13:00 +33°C° 0 mm 4 mps 649 mmHg 18%
    14:00 +34°C° 0 mm 4 mps 648 mmHg 16%
    15:00 +33°C° 0 mm 5 mps 647 mmHg 16%
    16:00 +33°C° 0 mm 5 mps 647 mmHg 16%
    17:00 +32°C° 0 mm 5 mps 646 mmHg 16%
    18:00 +29°C° 0 mm 5 mps 646 mmHg 22%
    19:00 +26°C° 0 mm 4 mps 645 mmHg 28%
    20:00 +22°C° 0 mm 3 mps 645 mmHg 34%
    21:00 +21°C° 0 mm 3 mps 644 mmHg 36%
    22:00 +21°C° 0 mm 3 mps 644 mmHg 39%
    23:00 +20°C° 0 mm 3 mps 643 mmHg 41%

    1 October, Sunday

    Time Temperature Precipitation Wind Pressure Humidity
    00:00 +19°C° 0 mm 3 mps 643 mmHg 40%
    01:00 +19°C° 0 mm 3 mps 642 mmHg 40%
    02:00 +18°C° 0 mm 3 mps 641 mmHg 39%
    03:00 +18°C° 0 mm 3 mps 641 mmHg 36%
    04:00 +18°C° 0 mm 3 mps 642 mmHg 32%
    05:00 +18°C° 0 mm 3 mps 642 mmHg 29%
    06:00 +18°C° 0 mm 4 mps 643 mmHg 29%
    07:00 +19°C° 0 mm 5 mps 644 mmHg 29%
    08:00 +20°C° 0 mm 5 mps 646 mmHg 29%
    09:00 +21°C° 0 mm 6 mps 646 mmHg 26%
    10:00 +22°C° 0 mm 6 mps 646 mmHg 22%
    11:00 +22°C° 0 mm 7 mps 646 mmHg 19%
    12:00 +23°C° 0 mm 7 mps 645 mmHg 18%
    13:00 +23°C° 0 mm 6 mps 645 mmHg 18%
    14:00 +23°C° 0 mm 6 mps 645 mmHg 18%
    15:00 +22°C° 0 mm 6 mps 644 mmHg 19%
    16:00 +21°C° 0 mm 6 mps 644 mmHg 21%
    17:00 +20°C° 0 mm 6 mps 644 mmHg 23%
    18:00 +19°C° 0 mm 4 mps 644 mmHg 27%
    19:00 +17°C° 0 mm 3 mps 645 mmHg 31%
    20:00 +15°C° 0 mm 2 mps 645 mmHg 35%
    21:00 +14°C° 0 mm 2 mps 645 mmHg 38%
    22:00 +13°C° 0 mm 1 mps 646 mmHg 40%
    23:00 +13°C° 0 mm 1 mps 646 mmHg 42%
    Show more